FLOCK 4V 10

导读

FLOCK 4V 10是美国Planet Labs公司研制的一颗SuperDove高分辨率商业遥感小卫星,于2020年9月3日发射升空,属于Flock 4v批次,同批次共包含10颗卫星。该卫星属于Planet的Dove遥感星座,配备多光谱成像装置,可获取对地观测影像数据,服务农业、林业、环境监测等多领域应用,补充了Planet星座的在轨观测能力。

基本信息
目录编号:
46296
目录名称:
FLOCK 4V 10
国际标识:
2020-061AA
轨道中心:
EARTH
卫星名称:
FLOCK 4V 10
卫星全名:
--
卫星状态:
已陨落 最后检测时间 2024-09-09
发射日期:
2020-09-03 UTC
国别 :
美国 (US)
星等 :
--
轨道信息
数据来源 国际轨道数据
星历时间: 2024-09-09T12:02:42+0800
轨道信息已过期673天
半长轴: 6579.3km
偏心率: 0.001417
轨道倾角: 97.321°
近地点辐角 277.457°
升交点赤经 330.247°
平近点角 82.511°
近地点: 191.842km
远地点: 210.488km
周期: 88.518分钟
每日圈数: 16.267966
详细信息
使用方式:
暂无